Location: Gallinara
(44.0333°N, 8.2333°E)
Time: 01:18:26
(UTC+00:00)

Cosmos 1898 Rocket - Pass Details

Date: 25 September 2020
Orbit: 753 x 784 km, 74.0° (Epoch: 31 October)

Event Time Altitude Azimuth Distance (km) Brightness Sun altitude
Rises 02:50:17 0° 339° (NNW) 3,244 6.8 -26.5°
Reaches altitude 10° 02:52:40 10° 339° (NNW) 2,319 6.0 -26.1°
Maximum altitude 02:57:56 89° 254° (WSW) 780 3.4 -25.2°
Drops below altitude 10° 03:03:14 10° 162° (SSE) 2,322 5.9 -24.4°
Sets 03:05:37 0° 162° (SSE) 3,250 6.7 -24.0°
